Vorticity
4 4 4 4 4 4 4 4 5 5 6 7 8 8 9 9 8 8 7 6 6 6 6 5 4 4 4 4 4 4 5 6 6 5 5 5 5 5 5 5 5 5 5 5 5 5 6 6 6 6 6 6 6 6 7 7 6 6 7 6 7 7 7 6 6 6 6 5 5 4 3 3 3 3 2 2 2 2 2 2 2 3 3 3 3 3 3 3 3 3 3 3 4 4 4 4 4 4 4 5 5 5 6
4 4 4 4 4 4 5 5 5 6 6 7 8 9 9 9 8 7 6 6 6 6 6 5 4 4 4 4 4 5 6 6 6 5 5 5 5 5 5 5 5 5 5 5 5 6 6 6 6 6 6 6 6 6 7 6 6 6 7 7 7 7 7 6 6 6 5 5 5 5 4 4 3 2 2 2 2 2 2 3 3 3 3 3 3 3 3 3 3 3 3 3 4 4 4 4 4 5 5 5 5 5 5
4 4 5 5 5 5 5 6 6 6 7 8 9 9 9 8 7 6 6 6 6 6 5 5 4 4 4 4 5 5 6 6 6 5 5 5 5 5 5 5 5 5 5 5 5 6 6 6 6 6 6 6 6 7 7 6 6 6 7 7 7 7 7 6 6 6 5 5 5 4 4 4 3 2 2 2 2 3 3 3 3 3 3 3 3 3 3 3 3 3 3 4 4 4 4 4 5 5 5 5 5 5 5
4 5 5 5 5 5 6 6 7 7 8 9 9 9 8 7 6 6 6 6 6 6 5 5 4 4 4 4 5 6 6 6 6 5 5 5 5 5 5 5 5 5 5 5 6 6 6 6 6 6 6 6 6 7 6 6 6 6 7 7 7 7 7 6 6 6 6 5 5 4 4 3 3 3 3 3 3 3 3 3 3 3 3 3 3 3 3 3 4 4 4 4 4 4 4 4 5 5 5 5 5 5 4
5 5 5 5 6 6 6 7 7 8 9 9 9 8 7 6 6 6 6 6 6 6 5 4 4 4 4 5 6 6 6 6 5 5 5 5 5 5 5 5 5 5 5 6 6 6 6 6 6 6 6 6 7 6 6 6 6 7 7 7 7 7 7 6 6 6 6 5 4 4 3 2 2 2 2 2 2 3 3 3 3 3 3 3 3 3 3 4 4 4 4 4 4 4 4 4 5 5 5 5 5 5 5
5 5 5 6 6 6 7 7 8 8 9 9 8 8 6 6 6 6 6 6 6 6 5 4 4 4 4 5 6 6 6 6 6 5 5 5 5 5 5 5 5 5 5 6 6 6 6 6 6 6 6 7 6 6 6 6 7 7 8 8 8 7 6 6 6 6 5 5 4 3 2 2 2 2 2 2 2 2 3 3 3 3 3 3 4 4 4 4 4 4 5 5 5 5 5 5 5 4 4 4 4 5 5
5 5 6 6 6 7 7 8 8 9 9 9 8 7 6 6 5 5 6 6 6 5 5 4 4 4 5 6 6 6 6 6 6 5 5 5 5 5 5 5 5 5 6 6 6 6 6 6 6 6 7 7 6 6 6 6 6 7 7 8 7 6 6 6 6 6 5 4 3 2 2 2 2 2 2 2 2 3 3 3 3 4 4 4 4 4 4 4 4 4 4 5 5 5 5 5 5 5 5 4 4 4 5
5 6 6 6 7 7 8 8 9 9 10 8 7 6 5 5 5 6 6 6 5 5 5 4 4 5 5 6 6 6 6 6 5 5 5 5 5 5 5 5 5 6 6 6 6 6 6 6 6 6 6 6 7 7 6 6 6 7 7 7 7 6 6 6 6 5 4 3 3 2 2 2 2 2 2 3 3 3 3 4 4 4 4 4 4 4 4 4 4 4 4 4 4 5 5 5 5 5 5 5 5 5 5
5 6 6 7 7 8 8 9 9 10 9 8 7 6 5 5 5 6 6 6 5 5 5 4 5 5 6 6 6 6 6 5 5 5 5 5 5 5 5 5 5 6 6 6 6 6 6 6 6 7 6 6 6 6 5 6 6 6 7 6 6 6 5 5 5 4 4 3 2 2 2 2 3 3 3 4 4 4 4 4 4 4 4 4 4 4 4 4 4 4 4 4 4 5 5 5 5 5 5 5 5 5 5
6 6 7 7 7 8 8 9 10 10 9 7 6 5 5 5 5 6 6 6 5 5 5 5 5 6 6 6 6 6 6 5 5 5 5 5 5 5 5 5 5 6 6 6 6 6 6 6 7 7 6 6 6 6 6 6 6 6 7 6 6 5 5 5 4 4 3 3 2 2 3 3 3 4 4 4 4 4 4 4 4 4 4 4 4 4 4 4 4 4 4 4 5 5 5 5 5 5 5 5 5 5 5
6 6 7 7 8 8 9 10 10 9 8 6 5 5 5 5 6 6 6 6 5 5 5 5 6 6 6 6 6 6 6 5 5 5 5 5 5 5 5 5 5 5 5 6 6 6 6 6 6 6 6 6 6 5 6 6 6 7 6 6 6 5 5 5 4 4 3 3 3 3 3 3 3 3 3 3 3 3 3 3 3 3 3 3 4 4 4 4 4 4 5 5 5 5 5 5 5 5 5 5 5 5 5
7 7 8 8 8 9 9 10 10 9 7 6 5 5 5 5 5 5 6 5 6 6 6 6 6 6 6 6 6 6 5 5 5 5 5 5 5 5 5 5 5 5 5 6 6 6 6 6 6 6 6 6 6 6 6 6 6 7 7 6 6 5 5 5 4 4 3 3 3 3 3 3 3 3 3 3 3 3 3 3 3 3 3 3 4 4 4 4 4 5 5 5 5 5 5 5 5 5 5 4 4 4 4
7 8 8 8 9 9 10 10 9 8 6 5 5 5 5 5 5 5 5 6 6 6 6 6 6 6 6 6 6 6 5 5 5 5 5 5 5 5 5 5 5 5 5 6 6 6 6 6 6 6 6 5 6 6 6 6 6 7 6 6 6 5 5 5 4 4 3 3 3 3 3 3 3 3 3 3 3 3 3 3 3 3 4 4 4 4 4 4 5 5 5 5 5 5 5 5 5 4 4 4 4 4 4
8 8 9 9 9 10 10 10 9 7 6 5 4 4 5 5 5 5 5 6 6 6 6 6 6 6 6 6 6 6 5 5 5 5 5 5 5 5 5 5 5 5 5 6 6 6 6 6 6 6 5 5 6 6 6 6 7 6 6 6 6 6 5 5 4 4 3 3 3 3 3 3 3 3 3 3 3 3 3 3 4 4 4 4 4 4 4 5 5 5 5 5 5 5 5 5 5 5 5 5 5 5 5
8 9 9 9 10 10 10 9 8 6 5 4 4 4 4 4 4 5 6 6 6 6 6 6 6 6 6 6 6 6 5 5 5 5 5 5 5 5 5 5 5 5 5 6 6 6 6 6 6 5 5 5 6 6 6 6 6 6 6 6 6 6 5 5 4 4 4 3 3 3 3 3 3 3 3 3 3 3 4 4 4 4 4 4 4 4 5 5 5 5 5 5 5 5 5 5 5 5 5 5 5 5 5
8 9 9 10 10 10 10 9 7 5 4 4 4 4 4 4 5 6 6 6 6 6 6 6 6 6 6 6 6 6 5 5 5 5 5 5 5 5 5 5 5 5 5 5 6 6 6 5 5 5 5 5 6 6 6 6 6 6 6 6 6 6 5 5 4 4 4 4 4 4 3 3 3 3 3 3 3 3 4 4 4 4 4 4 5 5 5 5 5 5 5 5 5 5 5 5 5 5 5 5 5 5 5
8 9 10 10 10 10 10 8 6 5 4 4 4 4 4 4 5 6 6 6 6 6 6 6 6 6 6 6 6 5 5 5 5 5 5 5 5 5 5 5 5 5 5 5 5 6 5 5 5 5 5 6 6 7 7 7 6 6 6 6 6 6 5 5 4 4 4 4 3 3 3 3 3 3 3 3 3 3 4 4 4 4 4 4 5 5 5 5 5 5 5 5 5 5 5 5 5 5 5 5 5 5 5
9 9 10 10 10 10 9 7 6 5 4 4 4 4 4 5 6 6 6 7 6 6 6 6 6 6 6 6 6 5 5 5 5 5 5 5 5 5 5 5 5 5 5 5 5 5 5 5 5 5 5 6 6 7 7 7 6 6 6 6 5 5 5 4 4 4 4 3 3 3 3 3 3 3 3 3 3 3 4 4 4 4 4 4 4 4 5 5 5 5 5 5 5 5 5 5 5 5 5 5 5 5 5
9 9 10 10 10 10 8 7 5 4 4 4 3 4 4 5 6 6 7 6 6 6 6 6 6 6 6 6 6 5 5 5 5 5 5 5 5 5 5 5 5 5 5 5 5 5 5 5 5 5 5 6 6 7 7 7 6 6 6 5 5 5 4 4 4 4 3 3 3 3 3 3 3 3 3 3 3 4 4 4 4 4 4 4 4 4 4 4 4 4 4 5 5 5 5 5 5 5 5 5 5 5 5
9 9 10 10 10 9 8 6 5 4 4 3 3 4 4 5 6 6 6 6 6 6 6 6 6 6 6 6 5 5 5 5 5 5 5 5 5 5 5 5 5 5 5 5 5 4 5 5 5 5 6 6 6 7 7 7 6 6 6 5 5 5 4 4 4 4 3 3 3 3 3 3 3 3 3 3 4 4 4 4 4 4 4 4 4 4 4 4 4 4 4 4 5 5 5 5 5 5 5 5 5 5 5
9 9 10 10 10 9 7 6 4 4 4 3 3 4 5 5 6 6 5 6 6 6 6 6 6 6 6 6 5 5 5 5 5 5 5 5 5 5 5 5 5 5 5 5 5 4 4 4 5 5 6 6 6 7 7 6 6 6 6 5 5 5 4 4 4 4 4 3 3 3 3 3 3 3 3 4 4 4 4 4 4 4 4 4 4 4 4 4 4 4 4 4 5 5 5 5 5 5 5 5 5 5 5
8 10 10 10 10 8 7 5 4 3 3 3 3 3 4 4 5 5 5 6 6 7 6 6 6 6 6 6 6 6 5 5 5 5 5 5 5 5 5 5 5 5 5 5 4 4 4 4 5 5 6 6 7 7 7 6 6 6 6 6 5 5 5 5 4 4 4 4 4 4 4 3 3 3 3 3 4 4 4 4 4 4 4 4 4 4 4 4 4 4 4 5 5 5 5 5 5 5 5 5 5 5 5
8 10 10 10 9 8 6 5 4 4 3 2 3 3 4 4 4 5 6 7 7 7 6 6 6 6 6 6 6 6 5 5 5 5 5 5 5 5 5 5 5 5 5 5 4 4 4 4 5 5 6 6 6 6 6 6 6 6 6 6 6 5 5 5 4 4 4 4 4 4 4 3 3 3 3 3 3 3 4 4 4 4 4 4 4 4 4 4 5 5 5 5 5 5 5 5 5 5 5 5 5 5 5
9 10 10 10 9 8 6 5 4 4 3 2 3 3 3 4 5 6 6 7 7 7 6 6 6 6 6 6 6 6 5 5 5 5 4 5 5 5 6 6 5 5 5 5 5 4 4 4 4 5 5 6 6 6 6 6 6 6 6 6 6 5 5 4 4 4 4 3 3 3 3 3 3 3 3 3 3 3 4 4 4 4 4 4 4 4 4 5 5 5 5 5 5 5 5 5 5 5 5 5 5 5 4
9 10 10 9 9 8 6 5 4 3 2 2 3 3 4 5 6 6 6 6 7 6 6 6 6 6 6 6 6 6 6 5 5 5 5 5 5 5 6 6 5 5 5 5 5 4 4 4 4 5 5 6 6 6 6 6 6 6 6 6 6 5 5 4 4 4 3 3 3 3 3 3 2 2 3 3 3 3 3 4 4 4 4 4 4 4 4 5 5 5 5 5 5 5 5 5 5 5 5 5 5 4 4
9 10 9 9 9 7 6 4 4 3 2 2 3 4 4 5 6 6 6 6 6 6 6 6 6 5 6 6 6 6 6 6 6 6 5 5 5 5 5 6 5 5 5 5 5 5 5 5 5 5 5 5 6 6 6 6 6 6 6 6 6 5 5 4 4 4 3 3 3 3 2 2 2 2 2 3 3 3 3 4 4 4 4 4 4 4 5 5 5 5 5 5 5 5 5 5 5 5 5 4 4 4 4
9 10 9 9 8 7 5 4 3 2 2 2 3 4 4 5 6 6 6 6 6 6 6 6 6 6 6 6 6 6 6 6 6 6 5 5 5 5 5 5 5 5 5 5 5 5 5 5 5 5 5 5 5 6 6 6 6 6 6 6 5 5 5 4 4 4 3 3 3 3 2 2 2 2 2 3 3 3 3 4 4 4 4 4 4 5 5 5 5 5 5 5 5 5 5 5 5 4 4 4 4 4 4
10 10 9 9 8 7 6 4 3 3 2 2 3 4 5 5 5 6 6 6 6 6 6 6 6 6 6 6 6 6 6 6 6 6 6 6 6 6 5 5 5 5 5 5 5 5 6 5 5 5 5 5 5 5 6 6 6 6 6 6 5 5 4 4 4 4 3 3 3 3 2 2 2 2 3 3 3 3 4 4 4 4 4 4 4 5 5 5 5 5 5 5 5 5 5 5 4 4 4 4 4 4 4
10 10 9 9 8 7 6 5 4 3 2 2 2 4 5 5 5 5 5 6 6 6 6 6 6 5 6 6 6 6 6 6 6 6 6 6 6 6 5 5 5 5 4 5 5 5 6 6 6 6 5 5 5 5 5 6 6 6 6 6 5 5 4 4 4 4 3 3 3 3 3 3 3 3 3 4 4 4 4 4 4 4 4 4 4 5 5 5 5 5 5 5 5 4 4 4 4 4 4 4 4 4 4
10 10 10 9 9 7 6 5 4 3 2 2 3 3 4 5 5 5 5 5 6 6 6 6 6 6 6 6 6 6 6 6 6 6 6 6 6 6 6 6 5 5 5 5 5 5 5 6 6 6 6 5 5 5 5 6 6 6 6 6 6 5 5 4 4 4 4 3 3 3 3 3 3 3 4 4 4 4 4 3 4 4 4 4 4 5 5 5 5 5 4 4 4 4 4 4 4 4 4 4 4 4 4
10 10 10 10 9 8 6 5 4 3 2 2 3 3 4 4 5 5 5 5 6 6 6 6 6 6 6 6 6 6 6 6 6 6 6 6 6 6 6 6 5 5 5 5 5 6 6 6 6 6 6 5 5 5 5 5 6 6 6 6 6 6 5 5 5 4 4 4 4 4 4 4 4 4 3 3 3 3 3 3 4 4 4 4 4 5 5 5 5 4 4 4 4 4 4 4 4 4 4 4 4 4 4
10 10 10 9 9 8 6 5 4 3 2 2 3 3 4 4 5 5 5 5 6 6 6 6 6 6 5 6 6 6 5 6 6 6 6 6 6 6 6 6 6 5 5 5 6 6 6 6 6 6 6 5 5 5 5 5 5 6 6 6 6 6 6 6 5 5 5 5 4 4 4 4 4 3 3 3 3 3 3 4 4 4 4 4 5 5 4 4 4 4 4 4 4 4 4 4 4 4 4 4 4 4 4
10 10 10 9 8 8 6 5 4 3 2 2 3 3 3 4 5 5 5 6 6 6 6 6 6 6 5 5 5 5 5 6 6 6 6 6 6 6 6 6 6 5 4 5 6 6 6 6 6 6 6 6 5 5 5 5 5 5 5 6 6 6 6 6 6 5 5 5 5 4 4 4 3 3 3 3 3 3 4 4 4 4 4 4 4 4 4 4 4 4 4 4 4 4 4 4 4 4 4 4 4 4 5
10 10 10 9 8 7 6 6 5 4 2 2 2 3 3 4 4 5 5 5 5 5 6 6 5 5 6 5 5 5 6 6 6 6 6 7 7 6 6 6 6 5 5 5 6 6 6 6 6 6 6 6 6 5 5 5 5 5 5 5 6 6 6 6 5 5 5 5 4 4 4 3 3 3 3 3 3 4 4 4 4 4 4 4 4 4 4 4 4 4 4 4 4 4 4 4 4 4 4 4 5 5 5
10 10 9 9 8 8 7 6 5 4 3 3 3 3 3 4 4 4 5 4 4 5 5 5 5 5 6 6 6 6 6 6 6 7 6 7 7 7 6 6 6 5 5 6 6 6 6 6 6 6 6 6 6 6 5 5 5 5 5 5 5 5 5 5 5 5 5 4 4 4 4 3 3 3 3 3 4 4 4 4 4 4 4 4 4 4 4 4 4 4 4 4 4 4 4 4 4 4 4 5 5 5 6
10 10 9 9 8 8 8 7 6 5 4 3 3 3 3 4 4 4 4 4 4 4 5 5 5 6 6 6 6 6 6 6 7 7 7 7 7 6 6 6 6 5 5 6 6 6 6 6 6 6 7 7 6 6 6 6 5 5 5 5 5 5 5 5 5 4 4 4 4 4 4 3 3 3 3 4 4 4 4 4 4 4 4 4 4 4 4 4 4 4 4 4 4 4 4 4 4 5 5 5 5 6 6
10 10 10 9 9 8 8 8 7 5 4 4 4 4 4 4 4 4 4 4 4 5 4 5 6 6 6 6 6 6 6 6 7 7 7 7 7 6 7 6 6 5 6 6 6 6 6 6 6 6 7 6 6 6 6 5 5 5 5 5 5 5 5 5 5 4 4 4 4 4 4 4 4 4 4 4 4 4 4 4 4 4 4 4 4 4 4 4 4 4 4 4 4 4 4 5 5 5 5 6 6 6 6
9 9 10 10 9 9 9 8 7 6 5 4 4 4 4 4 4 4 3 4 4 5 5 6 6 6 6 6 6 6 6 6 7 7 7 7 7 7 7 6 6 6 6 6 6 6 6 6 6 6 6 6 6 6 6 6 6 6 5 5 5 5 5 5 5 4 4 4 4 4 4 4 4 4 4 4 4 4 4 4 4 4 4 4 4 4 4 4 4 4 4 4 4 4 5 5 5 6 6 6 6 7 7
9 9 10 10 10 10 9 8 7 6 6 5 5 5 4 4 3 3 4 4 4 5 5 6 6 6 6 6 6 6 6 6 7 7 7 7 7 7 6 6 6 6 6 6 6 6 6 6 6 6 6 6 6 6 5 6 6 6 6 5 5 5 5 5 5 4 4 4 4 4 4 4 4 4 4 4 4 4 4 4 4 4 4 4 4 4 4 4 4 4 4 4 5 5 5 5 6 6 6 7 7 7 7
9 10 10 10 10 10 9 8 7 7 6 6 5 5 4 4 4 4 4 4 5 5 6 6 6 6 6 6 6 6 6 6 6 7 7 7 7 7 6 6 6 6 6 6 6 6 6 6 6 6 6 6 6 6 6 6 6 6 6 5 5 5 5 5 4 4 4 4 4 4 4 4 4 4 4 4 4 4 4 4 4 4 4 4 4 4 4 4 4 4 5 5 5 5 6 6 6 6 7 7 7 7 7
10 10 10 10 10 10 9 8 8 7 7 6 6 5 5 5 4 4 4 4 5 6 6 6 6 6 6 6 6 6 6 6 6 6 6 7 7 6 6 6 6 6 6 6 6 6 6 6 6 6 6 6 6 6 6 6 6 6 6 6 6 5 5 5 4 4 4 4 4 4 4 4 4 4 4 4 4 4 4 4 4 4 4 4 4 4 4 4 5 5 5 5 6 6 6 6 6 7 7 7 8 8 7
9 10 10 10 10 9 8 8 7 7 7 6 6 5 5 5 5 4 4 5 6 6 6 7 7 7 6 6 6 6 6 6 6 6 6 6 6 6 6 6 6 6 6 6 6 6 6 6 6 6 6 5 6 6 6 6 6 6 6 6 6 5 5 5 5 4 5 5 4 4 4 4 4 4 4 4 5 5 4 4 4 4 4 4 4 4 5 5 5 5 6 6 6 6 6 6 7 7 7 7 8 8 7
9 10 10 10 9 9 8 8 7 7 7 7 6 6 6 5 5 5 6 6 6 6 7 7 7 7 7 6 6 6 6 6 6 7 6 6 6 6 6 6 6 6 6 6 6 6 6 6 6 6 6 5 6 6 6 6 6 6 6 6 6 5 5 5 5 5 5 5 5 5 4 4 4 4 4 5 5 4 4 4 4 4 4 4 4 5 5 5 5 6 6 6 6 6 7 7 7 7 7 7 7 7 7
9 9 10 9 9 9 8 8 8 7 7 7 6 6 6 6 6 6 6 6 7 7 7 7 7 7 7 7 6 6 7 7 7 7 7 6 6 6 6 6 6 6 5 6 6 6 6 6 6 6 6 6 6 6 6 6 6 6 6 5 5 5 5 5 5 5 5 5 5 5 5 5 5 5 5 5 5 5 4 4 4 4 5 5 5 5 5 5 6 6 6 6 7 6 6 6 6 6 7 7 7 7 6
9 9 10 10 9 9 9 8 8 7 7 7 6 6 6 6 6 6 6 7 7 7 7 7 7 7 7 7 7 7 7 7 7 7 7 7 6 6 6 6 6 5 5 6 6 6 6 6 6 6 6 7 6 6 5 6 6 6 5 5 5 5 5 5 5 5 5 5 5 5 5 5 5 5 5 5 5 5 5 5 5 5 5 5 5 5 5 6 6 6 7 7 6 6 6 6 6 6 6 6 6 6 6
9 9 10 10 10 9 8 8 8 7 7 6 6 6 6 6 6 6 7 7 8 8 8 7 7 7 8 8 7 7 7 7 7 7 7 7 6 6 6 6 6 5 6 6 6 6 7 7 7 7 6 6 6 6 6 6 6 5 5 6 6 5 6 6 6 6 6 6 6 6 5 5 5 5 5 5 5 5 5 5 5 5 5 5 5 5 5 6 6 7 7 7 6 6 5 5 5 5 5 5 5 5 5
9 9 9 9 9 9 8 7 7 7 6 6 6 6 6 6 6 7 7 7 8 8 8 8 7 7 7 8 8 7 7 7 7 7 7 6 6 6 6 5 5 6 6 6 6 6 7 7 7 7 6 6 6 6 6 6 6 6 6 6 6 6 6 6 6 6 6 6 6 6 5 5 5 5 5 6 6 6 6 6 5 5 5 5 5 5 6 6 7 7 7 6 6 5 4 4 4 4 4 4 4 3 4
9 9 8 8 8 7 7 7 6 6 6 6 6 6 6 6 7 7 8 8 8 8 8 8 8 8 8 8 8 7 7 7 7 7 6 6 6 6 6 5 5 6 7 7 7 7 7 7 6 6 6 6 6 6 6 6 6 6 6 6 6 7 7 6 6 6 6 6 6 6 5 5 6 6 6 6 6 6 6 6 5 5 5 5 5 5 6 7 7 7 7 6 5 4 4 4 4 3 3 3 2 2 2
8 8 8 7 7 7 6 6 6 6 6 6 7 7 7 7 8 8 8 8 8 8 8 8 8 8 8 8 8 7 7 7 6 6 6 6 5 6 6 6 7 7 7 7 7 7 7 7 6 6 6 6 6 6 6 6 6 7 6 6 6 7 7 7 6 6 6 6 6 6 6 6 6 6 6 6 6 6 6 5 5 5 5 5 6 6 7 7 7 7 6 5 5 4 4 4 4 3 3 2 2 2 2
7 7 7 7 7 7 6 6 6 6 6 7 8 8 8 9 9 9 9 8 8 8 8 8 8 8 8 8 8 7 7 6 6 5 6 6 6 5 5 7 8 7 7 7 7 7 6 6 6 6 6 6 6 6 6 6 7 7 6 7 7 6 6 6 6 6 6 6 6 6 6 6 6 6 6 6 6 6 5 5 4 5 5 6 7 8 8 8 8 7 6 5 4 4 4 4 4 4 4 4 4 4 4
7 7 7 7 7 7 7 6 6 7 7 8 8 9 10 10 10 9 8 8 7 7 8 7 7 7 7 7 7 7 7 6 6 6 6 6 7 7 6 6 6 6 7 7 7 8 6 7 6 6 6 6 6 6 7 7 7 7 7 7 6 6 6 6 6 6 6 6 6 6 7 7 7 7 6 6 6 5 5 4 5 5 6 7 8 9 9 8 7 6 6 5 4 5 5 5 6 6 5 5 5 6 6
7 7 7 7 7 7 7 7 7 7 8 8 9 10 10 10 9 8 8 8 8 8 8 8 7 7 7 7 7 7 7 6 6 6 6 6 6 7 6 4 5 5 5 5 7 8 7 8 7 7 6 6 6 7 7 7 7 7 6 6 6 7 6 6 6 6 6 7 7 7 7 7 7 7 7 6 6 5 5 5 6 6 8 8 9 9 8 7 6 6 5 5 5 6 6 7 7 7 7 7 6 6 6
7 8 8 8 8 7 7 8 8 8 8 9 9 9 9 9 8 8 7 7 7 8 7 7 7 7 6 6 6 6 6 6 6 7 7 6 5 5 5 6 7 6 4 2 2 4 7 7 7 7 8 6 6 6 6 6 6 7 6 7 7 7 7 7 7 7 7 7 7 8 8 8 8 7 6 6 5 5 5 6 7 8 9 9 9 8 7 6 6 5 5 6 6 7 7 8 8 8 7 6 6 6 5
9 9 9 9 8 8 8 8 8 8 8 9 9 8 8 8 8 8 7 7 7 8 7 7 7 7 6 6 6 6 6 6 6 6 6 6 5 4 4 7 7 6 4 3 2 2 5 6 5 5 6 7 6 6 6 7 7 6 7 7 7 7 7 7 7 7 8 8 8 8 8 8 8 7 6 5 5 5 5 6 8 8 9 8 7 6 6 5 5 5 6 6 7 7 8 7 7 6 6 5 5 5 4
10 10 10 9 8 8 8 8 8 8 8 8 8 8 8 8 8 8 8 8 8 8 8 7 7 7 6 6 5 6 6 6 6 6 5 6 6 6 5 4 3 4 5 8 8 6 4 5 5 5 5 6 6 6 6 7 7 6 7 7 7 7 7 7 8 8 9 9 8 8 8 7 6 5 5 5 5 5 6 8 8 8 8 7 6 5 4 4 5 6 6 7 7 7 7 6 6 5 5 4 4 4 4
11 11 11 10 9 9 8 8 8 8 8 8 8 8 8 8 8 8 8 8 8 8 7 7 7 7 7 6 6 6 6 7 7 6 6 6 6 7 6 4 4 3 3 6 9 9 7 3 3 5 8 7 6 5 6 6 6 6 6 7 8 8 8 8 9 9 9 8 8 8 7 5 4 4 5 5 6 7 8 9 8 8 6 5 4 4 4 5 6 6 7 7 7 6 6 5 5 4 4 4 4 4 4
12 12 11 10 9 9 8 8 8 8 8 9 9 9 9 9 9 9 8 8 8 8 7 7 7 7 7 7 6 6 6 7 7 7 7 6 6 6 7 8 7 6 5 3 2 3 4 3 4 4 3 5 6 6 4 6 7 7 7 8 9 10 9 9 9 9 8 7 7 6 6 5 4 4 5 6 8 9 9 9 8 6 5 4 4 4 5 6 6 7 7 6 6 6 5 5 4 4 4 4 4 5 6
13 12 11 10 10 10 9 9 9 9 9 9 9 9 9 9 9 9 9 8 8 8 7 7 7 7 7 6 7 7 7 7 7 7 8 7 6 6 6 7 8 8 9 7 5 2 -1 3 6 6 -1 2 8 11 9 7 8 9 10 10 10 10 9 9 8 8 7 7 6 4 4 4 5 6 6 8 9 9 8 8 7 6 5 5 5 6 6 7 7 7 6 6 5 5 5 4 4 4 4 5 6 7 8
13 12 12 11 11 11 10 10 10 10 10 10 9 9 9 9 8 8 8 8 8 8 8 7 7 7 7 7 7 8 8 8 7 6 6 7 8 7 6 6 6 7 8 8 8 7 5 6 6 6 4 3 5 8 14 13 10 9 9 10 10 9 8 8 7 6 6 5 4 4 3 5 6 7 8 8 8 7 7 6 6 6 6 6 7 8 8 8 7 7 6 5 5 5 4 4 4 5 6 7 8 9 10
14 13 12 12 12 12 12 11 11 10 10 9 9 8 8 8 8 8 8 8 8 8 8 8 7 7 7 7 7 8 8 8 7 7 6 7 7 8 7 6 7 7 7 7 7 7 8 8 7 6 8 8 5 4 9 14 14 11 10 9 9 8 8 7 6 5 4 4 4 4 4 5 6 7 8 7 7 6 5 6 6 7 8 8 9 9 8 8 7 6 5 5 5 5 5 5 6 7 8 9 10 10 10
14 13 13 13 12 12 11 11 10 9 9 8 8 7 7 7 8 8 8 8 8 8 8 8 8 8 8 8 8 8 8 7 7 8 8 8 7 6 7 7 7 7 7 7 7 7 8 8 8 8 9 10 10 9 7 7 9 12 15 13 10 7 6 7 6 6 5 5 5 5 5 5 6 6 7 6 5 5 5 6 7 9 10 10 10 9 8 7 6 5 5 5 5 5 6 7 8 9 10 10 10 9 9
Height
3141 3141 3142 3142 3143 3143 3144 3144 3144 3145 3145 3145 3146 3146 3147 3147 3147 3148 3148 3148 3149 3149 3149 3149 3148 3149 3149 3149 3149 3149 3149 3149 3149 3150 3150 3149 3149 3149 3149 3149 3149 3149 3149 3149 3149 3149 3149 3148 3148 3148 3148 3148 3147 3147 3147 3147 3147 3146 3146 3146 3146 3146 3145 3145 3145 3145 3145 3145 3145 3145 3144 3144 3144 3144 3144 3144 3144 3143 3143 3143 3143 3142 3142 3142 3141 3141 3141 3140 3140 3140 3139 3139 3139 3138 3138 3137 3137 3137 3136 3135 3135 3134 3134
3140 3141 3141 3142 3142 3143 3143 3143 3144 3144 3145 3145 3145 3146 3146 3146 3147 3147 3147 3148 3148 3148 3148 3148 3148 3148 3148 3148 3149 3149 3149 3149 3149 3149 3149 3149 3149 3149 3149 3149 3149 3149 3149 3149 3149 3149 3148 3148 3148 3148 3148 3147 3147 3147 3147 3147 3146 3146 3146 3146 3146 3146 3145 3145 3145 3145 3145 3145 3145 3144 3144 3144 3144 3144 3144 3144 3144 3143 3143 3143 3142 3142 3142 3141 3141 3141 3140 3140 3140 3140 3139 3139 3138 3138 3137 3137 3137 3136 3136 3135 3135 3134 3133
3140 3140 3141 3141 3142 3142 3143 3143 3143 3144 3144 3145 3145 3145 3145 3146 3146 3147 3147 3147 3148 3148 3148 3148 3148 3148 3148 3148 3148 3148 3149 3149 3149 3149 3149 3149 3149 3149 3149 3149 3149 3149 3149 3149 3149 3148 3148 3148 3148 3148 3147 3147 3147 3147 3147 3147 3146 3146 3146 3146 3146 3146 3145 3145 3145 3145 3145 3145 3145 3144 3144 3144 3144 3144 3144 3144 3143 3143 3143 3142 3142 3142 3142 3141 3141 3141 3140 3140 3140 3139 3139 3139 3138 3138 3137 3137 3136 3136 3135 3135 3134 3134 3133
3139 3140 3140 3140 3141 3141 3142 3142 3143 3143 3144 3144 3145 3145 3145 3145 3146 3146 3146 3147 3147 3147 3147 3147 3147 3147 3147 3148 3148 3148 3148 3148 3149 3149 3149 3149 3149 3149 3149 3149 3149 3149 3149 3148 3148 3148 3148 3148 3148 3147 3147 3147 3147 3147 3147 3147 3146 3146 3146 3146 3146 3146 3145 3145 3145 3145 3145 3145 3145 3145 3144 3144 3144 3144 3143 3143 3143 3143 3142 3142 3142 3142 3141 3141 3141 3140 3140 3140 3140 3139 3139 3138 3138 3137 3137 3136 3136 3135 3135 3134 3134 3133 3132
3139 3139 3140 3140 3140 3141 3141 3142 3142 3143 3143 3144 3144 3144 3145 3145 3145 3146 3146 3146 3147 3147 3147 3147 3147 3147 3147 3147 3148 3148 3148 3148 3148 3148 3148 3149 3149 3149 3149 3149 3149 3149 3148 3148 3148 3148 3148 3148 3147 3147 3147 3147 3147 3147 3146 3146 3146 3146 3146 3146 3146 3146 3145 3145 3145 3145 3145 3145 3145 3145 3144 3144 3144 3144 3143 3143 3143 3142 3142 3142 3142 3141 3141 3141 3140 3140 3140 3140 3139 3139 3138 3138 3138 3137 3136 3136 3135 3135 3134 3134 3133 3133 3132
3138 3138 3139 3140 3140 3140 3141 3141 3142 3142 3143 3143 3143 3144 3144 3145 3145 3145 3146 3146 3146 3146 3146 3146 3146 3146 3147 3147 3147 3147 3148 3148 3148 3148 3148 3148 3148 3149 3149 3149 3149 3148 3148 3148 3148 3148 3148 3148 3147 3147 3147 3147 3147 3147 3146 3146 3146 3146 3146 3146 3146 3145 3145 3145 3145 3145 3145 3145 3145 3145 3144 3144 3144 3144 3143 3143 3143 3142 3142 3142 3141 3141 3141 3141 3140 3140 3140 3139 3139 3139 3138 3138 3137 3137 3136 3135 3135 3134 3134 3133 3133 3132 3131
3137 3138 3138 3139 3140 3140 3140 3141 3141 3141 3142 3142 3143 3143 3144 3144 3145 3145 3145 3145 3146 3146 3146 3146 3146 3146 3146 3147 3147 3147 3147 3148 3148 3148 3148 3148 3148 3148 3148 3148 3148 3148 3148 3148 3148 3148 3147 3147 3147 3147 3147 3147 3147 3146 3146 3146 3146 3146 3146 3146 3146 3145 3145 3145 3145 3145 3145 3145 3145 3144 3144 3144 3144 3143 3143 3143 3142 3142 3142 3142 3141 3141 3141 3140 3140 3140 3139 3139 3139 3138 3138 3137 3137 3136 3135 3135 3134 3134 3133 3133 3132 3131 3131
3137 3137 3138 3138 3139 3139 3140 3140 3140 3141 3141 3142 3142 3143 3143 3144 3144 3144 3145 3145 3145 3145 3145 3145 3145 3146 3146 3146 3146 3147 3147 3147 3147 3147 3147 3148 3148 3148 3148 3148 3148 3148 3148 3148 3148 3148 3147 3147 3147 3147 3147 3147 3146 3146 3146 3146 3146 3146 3146 3146 3146 3145 3145 3145 3145 3145 3145 3145 3144 3144 3144 3144 3143 3143 3143 3143 3142 3142 3142 3141 3141 3141 3140 3140 3140 3139 3139 3139 3138 3138 3137 3136 3136 3135 3135 3134 3134 3133 3133 3132 3131 3131 3130
3136 3137 3137 3138 3138 3139 3139 3140 3140 3140 3141 3141 3142 3142 3143 3143 3144 3144 3144 3145 3145 3145 3145 3145 3145 3145 3146 3146 3146 3146 3147 3147 3147 3147 3147 3147 3147 3147 3148 3148 3148 3148 3148 3148 3148 3147 3147 3147 3147 3147 3147 3146 3146 3146 3146 3146 3146 3146 3146 3145 3145 3145 3145 3145 3145 3145 3145 3144 3144 3144 3144 3143 3143 3143 3142 3142 3142 3142 3141 3141 3141 3140 3140 3140 3139 3139 3138 3138 3137 3137 3136 3136 3135 3135 3134 3134 3133 3132 3132 3131 3130 3130 3129
3135 3136 3136 3137 3138 3138 3139 3139 3139 3140 3140 3141 3141 3142 3142 3143 3143 3144 3144 3144 3145 3145 3145 3145 3145 3145 3145 3145 3146 3146 3146 3146 3146 3146 3147 3147 3147 3147 3147 3147 3147 3147 3147 3147 3147 3147 3147 3147 3147 3147 3146 3146 3146 3146 3146 3146 3146 3146 3145 3145 3145 3145 3145 3145 3145 3145 3144 3144 3144 3144 3143 3143 3143 3142 3142 3142 3141 3141 3141 3140 3140 3140 3140 3139 3139 3138 3138 3137 3137 3136 3136 3135 3135 3134 3134 3133 3133 3132 3131 3130 3130 3129 3129
3135 3135 3136 3136 3137 3137 3138 3138 3139 3139 3140 3140 3141 3141 3142 3142 3143 3143 3143 3144 3144 3144 3144 3144 3144 3145 3145 3145 3145 3146 3146 3146 3146 3146 3146 3146 3147 3147 3147 3147 3147 3147 3147 3147 3147 3147 3147 3147 3146 3146 3146 3146 3146 3146 3145 3145 3145 3145 3145 3145 3145 3145 3145 3145 3145 3145 3144 3144 3144 3144 3143 3143 3142 3142 3142 3141 3141 3141 3140 3140 3140 3140 3139 3139 3138 3138 3137 3137 3136 3136 3135 3135 3134 3134 3133 3133 3132 3131 3131 3130 3129 3129 3128
3135 3135 3135 3136 3136 3136 3137 3138 3138 3139 3139 3140 3140 3141 3141 3142 3142 3143 3143 3143 3143 3144 3144 3144 3144 3144 3145 3145 3145 3145 3145 3145 3146 3146 3146 3146 3146 3146 3147 3147 3147 3147 3147 3147 3147 3147 3146 3146 3146 3146 3146 3146 3145 3145 3145 3145 3145 3145 3145 3145 3145 3145 3145 3144 3144 3144 3144 3144 3144 3143 3143 3143 3142 3142 3141 3141 3141 3140 3140 3140 3139 3139 3139 3138 3138 3137 3137 3136 3136 3135 3135 3134 3134 3133 3133 3132 3131 3131 3130 3130 3129 3128 3127
3134 3134 3135 3135 3135 3136 3136 3137 3138 3138 3139 3139 3140 3140 3141 3141 3141 3142 3142 3143 3143 3143 3143 3143 3144 3144 3144 3144 3145 3145 3145 3145 3145 3145 3145 3146 3146 3146 3146 3146 3146 3146 3146 3146 3146 3146 3146 3146 3146 3146 3145 3145 3145 3145 3145 3145 3145 3145 3145 3145 3145 3144 3144 3144 3144 3144 3144 3144 3143 3143 3143 3142 3142 3141 3141 3141 3140 3140 3140 3139 3139 3139 3138 3138 3137 3137 3136 3136 3135 3135 3134 3134 3133 3132 3132 3131 3131 3130 3129 3129 3128 3127 3127
3133 3134 3134 3134 3135 3135 3136 3136 3137 3138 3138 3139 3140 3140 3140 3141 3141 3141 3142 3142 3142 3142 3143 3143 3143 3143 3144 3144 3144 3145 3145 3145 3145 3145 3145 3145 3145 3146 3146 3146 3146 3146 3146 3146 3146 3146 3146 3146 3145 3145 3145 3145 3145 3145 3145 3145 3145 3145 3145 3145 3144 3144 3144 3144 3144 3144 3143 3143 3143 3142 3142 3142 3141 3141 3140 3140 3140 3140 3139 3139 3138 3138 3138 3137 3137 3136 3136 3135 3135 3134 3134 3133 3132 3132 3131 3130 3130 3129 3129 3128 3127 3126 3126
3132 3133 3133 3134 3134 3135 3135 3136 3137 3137 3138 3138 3139 3139 3140 3140 3141 3141 3141 3142 3142 3142 3142 3142 3143 3143 3143 3144 3144 3144 3144 3144 3144 3145 3145 3145 3145 3145 3145 3145 3146 3146 3146 3146 3146 3145 3145 3145 3145 3145 3145 3145 3145 3145 3145 3145 3145 3145 3144 3144 3144 3144 3144 3144 3143 3143 3143 3143 3142 3142 3142 3141 3141 3140 3140 3140 3140 3139 3139 3138 3138 3138 3137 3137 3136 3135 3135 3135 3134 3133 3133 3132 3132 3131 3130 3130 3129 3129 3128 3127 3126 3126 3125
3132 3132 3133 3133 3134 3134 3135 3135 3136 3137 3137 3138 3138 3139 3139 3140 3140 3141 3141 3141 3141 3141 3142 3142 3142 3142 3143 3143 3143 3144 3144 3144 3144 3144 3144 3145 3145 3145 3145 3145 3145 3145 3145 3145 3145 3145 3145 3145 3145 3145 3145 3145 3145 3145 3145 3145 3144 3144 3144 3144 3144 3143 3143 3143 3143 3143 3143 3142 3142 3142 3141 3141 3140 3140 3140 3139 3139 3139 3138 3138 3137 3137 3136 3136 3135 3135 3135 3134 3133 3133 3132 3131 3131 3130 3130 3129 3128 3128 3127 3126 3125 3125 3124
3131 3131 3132 3132 3133 3134 3134 3135 3136 3136 3137 3137 3138 3138 3138 3139 3140 3140 3140 3140 3141 3141 3141 3141 3142 3142 3142 3143 3143 3143 3143 3144 3144 3144 3144 3144 3144 3145 3145 3145 3145 3145 3145 3145 3145 3145 3145 3145 3144 3144 3144 3144 3144 3144 3144 3144 3144 3144 3144 3143 3143 3143 3143 3143 3142 3142 3142 3142 3141 3141 3141 3140 3140 3140 3139 3139 3139 3138 3138 3137 3137 3136 3136 3135 3135 3134 3134 3133 3132 3132 3131 3131 3130 3130 3129 3128 3127 3127 3126 3125 3125 3124 3123
3130 3131 3131 3132 3132 3133 3134 3134 3135 3136 3137 3137 3137 3137 3138 3138 3139 3139 3140 3140 3140 3140 3140 3141 3141 3142 3142 3142 3142 3143 3143 3143 3143 3143 3144 3144 3144 3144 3144 3144 3144 3145 3145 3145 3144 3144 3144 3144 3144 3144 3144 3144 3144 3144 3144 3144 3144 3143 3143 3143 3143 3143 3142 3142 3142 3142 3142 3141 3141 3141 3140 3140 3140 3139 3139 3139 3138 3138 3137 3137 3136 3136 3135 3135 3134 3134 3133 3132 3132 3131 3130 3130 3129 3129 3128 3127 3126 3126 3125 3124 3124 3123 3122
3130 3130 3130 3131 3132 3132 3133 3134 3135 3135 3136 3136 3136 3137 3137 3138 3138 3139 3139 3139 3140 3140 3140 3140 3141 3141 3142 3142 3142 3142 3143 3143 3143 3143 3143 3143 3143 3144 3144 3144 3144 3144 3144 3144 3144 3144 3144 3144 3144 3144 3143 3144 3143 3143 3143 3143 3143 3143 3143 3142 3142 3142 3142 3142 3142 3141 3141 3141 3141 3140 3140 3140 3139 3139 3138 3138 3138 3137 3137 3136 3136 3135 3135 3134 3134 3133 3132 3132 3131 3130 3130 3129 3129 3128 3127 3126 3126 3125 3124 3124 3123 3122 3121
3129 3130 3130 3130 3131 3132 3132 3133 3134 3135 3135 3135 3136 3136 3137 3137 3138 3138 3139 3139 3139 3139 3140 3140 3140 3141 3141 3141 3142 3142 3142 3142 3142 3143 3143 3143 3143 3143 3143 3143 3144 3144 3143 3143 3143 3143 3143 3143 3143 3143 3143 3143 3143 3143 3143 3143 3143 3142 3142 3142 3142 3142 3141 3141 3141 3141 3141 3140 3140 3140 3140 3139 3139 3138 3138 3137 3137 3136 3136 3135 3135 3135 3134 3133 3133 3132 3132 3131 3130 3130 3129 3128 3128 3127 3126 3125 3125 3124 3123 3123 3122 3121 3120
3128 3129 3129 3130 3130 3131 3131 3132 3133 3134 3135 3135 3135 3136 3137 3137 3137 3138 3138 3138 3138 3139 3139 3140 3140 3140 3141 3141 3141 3141 3142 3142 3142 3142 3142 3142 3143 3143 3143 3143 3143 3143 3143 3143 3143 3143 3143 3143 3143 3142 3142 3142 3143 3143 3143 3142 3142 3142 3142 3142 3141 3141 3141 3141 3140 3140 3140 3140 3140 3139 3139 3139 3138 3138 3137 3137 3136 3136 3135 3135 3134 3134 3133 3133 3132 3131 3131 3130 3130 3129 3128 3128 3127 3126 3125 3125 3124 3123 3122 3122 3121 3120 3120
3128 3128 3129 3129 3130 3130 3131 3132 3133 3133 3134 3134 3135 3135 3136 3136 3137 3137 3137 3138 3138 3139 3139 3139 3140 3140 3140 3140 3141 3141 3141 3141 3141 3141 3142 3142 3142 3142 3142 3142 3142 3142 3142 3142 3142 3142 3142 3142 3142 3142 3142 3142 3142 3142 3142 3142 3142 3142 3141 3141 3141 3141 3141 3140 3140 3140 3140 3139 3139 3139 3138 3138 3137 3137 3137 3136 3135 3135 3135 3134 3134 3133 3132 3132 3131 3130 3130 3129 3129 3128 3127 3127 3126 3125 3125 3124 3123 3122 3122 3121 3120 3119 3119
3127 3128 3128 3129 3129 3130 3131 3131 3132 3133 3133 3134 3134 3135 3135 3136 3136 3137 3137 3137 3138 3138 3138 3139 3139 3140 3140 3140 3140 3140 3141 3141 3141 3141 3141 3141 3141 3142 3142 3142 3142 3142 3142 3142 3142 3142 3142 3142 3142 3141 3142 3142 3142 3142 3142 3141 3141 3141 3141 3141 3141 3140 3140 3140 3140 3139 3139 3139 3138 3138 3138 3137 3137 3136 3136 3135 3135 3134 3134 3133 3133 3132 3132 3131 3130 3130 3129 3129 3128 3127 3126 3126 3125 3125 3124 3123 3122 3121 3120 3120 3119 3118 3117
3126 3127 3127 3128 3128 3129 3130 3131 3131 3132 3133 3133 3134 3134 3135 3135 3136 3136 3137 3137 3137 3138 3138 3138 3139 3139 3139 3140 3140 3140 3140 3140 3140 3140 3141 3141 3141 3141 3141 3141 3141 3141 3141 3141 3141 3141 3141 3141 3141 3141 3141 3141 3141 3141 3141 3141 3141 3140 3140 3140 3140 3140 3140 3140 3139 3139 3138 3138 3138 3137 3137 3137 3136 3136 3135 3135 3134 3134 3133 3132 3132 3131 3131 3130 3130 3129 3128 3128 3127 3126 3125 3125 3124 3123 3123 3122 3121 3120 3120 3119 3118 3117 3116
3125 3126 3127 3127 3128 3129 3130 3130 3131 3131 3132 3133 3133 3134 3134 3135 3135 3136 3136 3136 3137 3137 3137 3138 3138 3138 3139 3139 3139 3140 3140 3140 3140 3140 3140 3140 3140 3141 3141 3141 3141 3141 3141 3141 3141 3141 3141 3141 3141 3141 3141 3140 3141 3141 3140 3140 3140 3140 3140 3140 3140 3139 3139 3139 3139 3138 3138 3138 3137 3137 3136 3136 3135 3135 3135 3134 3133 3133 3132 3132 3131 3130 3130 3129 3129 3128 3127 3127 3126 3125 3125 3124 3123 3122 3122 3121 3120 3119 3119 3118 3117 3116 3115
3125 3126 3126 3127 3127 3128 3129 3130 3130 3131 3131 3132 3133 3133 3134 3134 3135 3135 3135 3136 3136 3136 3137 3137 3137 3138 3138 3138 3139 3139 3139 3139 3140 3140 3140 3140 3140 3140 3140 3140 3140 3140 3140 3140 3140 3140 3140 3140 3140 3140 3140 3140 3140 3140 3140 3140 3140 3140 3139 3139 3139 3139 3138 3138 3138 3138 3137 3137 3136 3136 3136 3135 3135 3134 3134 3133 3133 3132 3131 3131 3130 3130 3129 3128 3128 3127 3126 3126 3125 3124 3124 3123 3122 3121 3121 3120 3119 3118 3117 3117 3116 3115 3114
3125 3125 3126 3126 3126 3127 3128 3129 3130 3130 3131 3131 3132 3133 3133 3134 3134 3135 3135 3135 3135 3136 3136 3136 3137 3137 3137 3138 3138 3138 3139 3139 3139 3139 3139 3139 3140 3140 3140 3140 3140 3140 3140 3140 3140 3140 3140 3140 3140 3140 3140 3139 3140 3140 3139 3139 3139 3139 3139 3139 3138 3138 3138 3137 3137 3137 3137 3136 3136 3135 3135 3135 3134 3134 3133 3132 3132 3131 3130 3130 3129 3129 3128 3127 3127 3126 3125 3125 3124 3123 3123 3122 3121 3120 3120 3119 3118 3117 3116 3115 3115 3114 3113
3124 3124 3125 3125 3126 3127 3128 3128 3129 3130 3130 3131 3131 3132 3133 3133 3134 3134 3134 3135 3135 3135 3135 3136 3136 3136 3137 3137 3137 3138 3138 3138 3139 3139 3139 3139 3139 3139 3139 3139 3139 3139 3139 3139 3139 3139 3139 3139 3139 3139 3139 3139 3139 3139 3139 3139 3138 3138 3138 3138 3138 3137 3137 3137 3136 3136 3136 3135 3135 3135 3134 3134 3133 3133 3132 3131 3131 3130 3130 3129 3128 3128 3127 3126 3126 3125 3124 3124 3123 3122 3121 3121 3120 3119 3119 3118 3117 3116 3115 3114 3113 3113 3112
3123 3124 3124 3125 3125 3126 3127 3127 3128 3129 3130 3130 3131 3131 3132 3132 3133 3133 3134 3134 3135 3135 3135 3135 3136 3136 3136 3136 3137 3137 3138 3138 3138 3138 3138 3138 3138 3139 3139 3139 3139 3138 3138 3138 3138 3138 3139 3139 3139 3139 3139 3138 3138 3138 3138 3138 3138 3137 3137 3137 3137 3137 3136 3136 3136 3135 3135 3135 3134 3134 3134 3133 3132 3132 3131 3130 3130 3129 3129 3128 3127 3127 3126 3125 3125 3124 3123 3123 3122 3121 3120 3120 3119 3118 3117 3117 3116 3115 3114 3113 3112 3111 3110
3122 3123 3123 3124 3125 3125 3126 3127 3127 3128 3129 3130 3130 3131 3131 3132 3132 3133 3133 3134 3134 3134 3135 3135 3135 3135 3135 3136 3136 3137 3137 3137 3137 3138 3138 3138 3138 3138 3138 3138 3138 3138 3138 3138 3138 3138 3138 3138 3138 3138 3138 3138 3138 3138 3137 3137 3137 3137 3136 3136 3136 3136 3135 3135 3135 3135 3134 3134 3134 3133 3133 3132 3131 3131 3130 3130 3129 3128 3128 3127 3126 3126 3125 3125 3124 3123 3122 3122 3121 3120 3120 3119 3118 3117 3116 3115 3115 3114 3113 3112 3111 3110 3109
3121 3122 3123 3123 3124 3125 3125 3126 3127 3128 3128 3129 3130 3130 3131 3131 3132 3132 3133 3133 3133 3134 3134 3134 3135 3135 3135 3135 3136 3136 3136 3137 3137 3137 3137 3137 3137 3137 3137 3137 3137 3137 3137 3137 3137 3137 3137 3137 3137 3137 3137 3137 3137 3137 3137 3136 3136 3136 3136 3135 3135 3135 3135 3135 3134 3134 3134 3133 3133 3132 3132 3131 3130 3130 3129 3129 3128 3127 3127 3126 3125 3125 3124 3124 3123 3122 3121 3121 3120 3119 3118 3118 3117 3116 3115 3114 3114 3113 3112 3111 3110 3109 3108
3120 3121 3122 3122 3123 3124 3125 3125 3126 3127 3128 3128 3129 3130 3130 3131 3131 3132 3132 3132 3133 3133 3133 3134 3134 3134 3135 3135 3135 3135 3136 3136 3136 3136 3136 3136 3137 3137 3137 3137 3137 3136 3136 3136 3136 3136 3136 3136 3136 3136 3136 3136 3136 3136 3136 3136 3135 3135 3135 3135 3135 3134 3134 3134 3133 3133 3133 3132 3132 3131 3131 3130 3130 3129 3128 3128 3127 3126 3126 3125 3125 3124 3123 3123 3122 3121 3120 3120 3119 3118 3117 3116 3116 3115 3114 3113 3112 3111 3110 3110 3108 3107 3106
3120 3120 3121 3121 3122 3123 3124 3125 3125 3126 3127 3127 3128 3129 3130 3130 3131 3131 3131 3132 3132 3132 3133 3133 3133 3134 3134 3134 3135 3135 3135 3135 3135 3136 3136 3136 3136 3136 3136 3136 3136 3136 3136 3136 3136 3136 3136 3136 3136 3136 3136 3135 3135 3135 3135 3135 3135 3135 3134 3134 3134 3134 3133 3133 3133 3132 3132 3131 3131 3130 3130 3129 3129 3128 3127 3127 3126 3125 3125 3124 3124 3123 3122 3121 3121 3120 3119 3119 3118 3117 3116 3115 3115 3114 3113 3112 3111 3110 3109 3108 3107 3106 3105
3119 3119 3120 3120 3121 3122 3123 3124 3125 3125 3126 3127 3127 3128 3129 3130 3130 3130 3131 3131 3131 3131 3132 3132 3132 3133 3133 3134 3134 3134 3135 3135 3135 3135 3135 3135 3135 3135 3135 3135 3135 3135 3135 3135 3135 3135 3135 3135 3135 3135 3135 3135 3135 3135 3134 3134 3134 3134 3134 3133 3133 3133 3132 3132 3132 3131 3131 3130 3130 3130 3129 3128 3128 3127 3126 3126 3125 3125 3124 3123 3123 3122 3121 3120 3120 3119 3118 3117 3116 3116 3115 3114 3113 3112 3111 3110 3110 3109 3108 3107 3106 3105 3104
3118 3118 3119 3120 3120 3121 3122 3123 3124 3125 3125 3126 3127 3128 3128 3129 3129 3130 3130 3130 3130 3131 3131 3131 3132 3132 3132 3133 3133 3134 3134 3134 3134 3135 3135 3135 3135 3135 3135 3135 3134 3134 3134 3134 3134 3134 3134 3134 3134 3134 3134 3134 3134 3134 3133 3133 3133 3133 3133 3132 3132 3132 3132 3131 3131 3130 3130 3130 3129 3129 3128 3127 3127 3126 3125 3125 3124 3124 3123 3122 3122 3121 3120 3119 3119 3118 3117 3116 3115 3115 3114 3113 3112 3111 3110 3109 3108 3107 3106 3105 3104 3103 3102
3116 3117 3118 3119 3119 3120 3121 3122 3123 3124 3125 3125 3126 3127 3127 3128 3129 3129 3129 3130 3130 3130 3130 3131 3131 3131 3132 3132 3133 3133 3133 3133 3134 3134 3134 3134 3134 3134 3134 3134 3134 3134 3133 3133 3133 3133 3133 3133 3133 3133 3133 3133 3133 3133 3133 3132 3132 3132 3132 3131 3131 3131 3131 3130 3130 3130 3129 3129 3128 3127 3127 3126 3125 3125 3124 3124 3123 3122 3122 3121 3120 3120 3119 3118 3117 3117 3116 3115 3114 3113 3112 3111 3110 3110 3109 3108 3107 3106 3105 3104 3103 3102 3100
3115 3116 3117 3118 3119 3119 3120 3121 3122 3123 3124 3125 3125 3126 3127 3127 3128 3128 3129 3129 3129 3130 3130 3130 3130 3131 3131 3132 3132 3132 3132 3133 3133 3133 3133 3133 3133 3133 3133 3133 3133 3133 3133 3133 3133 3133 3133 3133 3133 3132 3132 3132 3132 3132 3132 3131 3131 3131 3131 3131 3130 3130 3130 3130 3129 3129 3128 3127 3127 3126 3126 3125 3125 3124 3123 3123 3122 3121 3121 3120 3120 3119 3118 3117 3116 3115 3115 3114 3113 3112 3111 3110 3109 3108 3107 3106 3105 3104 3103 3102 3101 3100 3099
3115 3115 3116 3117 3118 3119 3120 3120 3121 3122 3123 3124 3125 3125 3126 3126 3127 3127 3128 3128 3129 3129 3129 3130 3130 3130 3131 3131 3131 3131 3132 3132 3132 3132 3133 3133 3133 3132 3132 3132 3132 3132 3132 3132 3132 3132 3132 3132 3132 3132 3131 3131 3131 3131 3131 3130 3130 3130 3130 3130 3130 3129 3129 3129 3128 3128 3127 3126 3126 3125 3125 3124 3123 3123 3122 3121 3121 3120 3120 3119 3118 3117 3117 3116 3115 3114 3113 3112 3111 3110 3110 3109 3108 3106 3105 3105 3103 3102 3101 3100 3099 3098 3097
3113 3114 3115 3116 3117 3118 3119 3120 3120 3121 3122 3123 3124 3125 3125 3126 3126 3127 3127 3128 3128 3128 3129 3129 3129 3130 3130 3130 3130 3131 3131 3131 3131 3131 3132 3132 3132 3132 3131 3131 3131 3131 3131 3131 3131 3131 3131 3131 3131 3131 3130 3130 3130 3130 3130 3130 3130 3129 3129 3129 3129 3128 3128 3128 3127 3126 3126 3125 3125 3124 3123 3123 3122 3122 3121 3120 3120 3119 3119 3118 3117 3116 3115 3115 3114 3113 3112 3111 3110 3109 3108 3107 3106 3105 3104 3103 3102 3101 3100 3098 3097 3096 3095
3112 3113 3114 3115 3116 3117 3118 3119 3120 3120 3121 3122 3123 3124 3124 3125 3125 3126 3126 3127 3127 3127 3128 3128 3129 3129 3129 3130 3130 3130 3130 3130 3130 3131 3131 3131 3131 3131 3131 3130 3130 3130 3130 3130 3130 3130 3130 3130 3130 3130 3130 3130 3129 3129 3129 3129 3129 3128 3128 3128 3128 3127 3127 3126 3126 3125 3125 3124 3124 3123 3122 3122 3121 3120 3120 3119 3119 3118 3117 3117 3116 3115 3114 3113 3113 3112 3111 3110 3109 3108 3107 3106 3105 3104 3102 3101 3100 3099 3098 3097 3095 3094 3093
3111 3112 3113 3114 3115 3116 3117 3118 3119 3120 3120 3121 3122 3123 3124 3124 3125 3125 3126 3126 3126 3127 3127 3127 3128 3128 3128 3129 3129 3129 3129 3129 3130 3130 3130 3130 3130 3130 3130 3130 3130 3129 3129 3129 3129 3129 3129 3129 3129 3129 3129 3129 3128 3128 3128 3128 3128 3127 3127 3127 3127 3126 3126 3125 3125 3124 3124 3123 3122 3122 3121 3120 3120 3119 3119 3118 3118 3117 3116 3115 3115 3114 3113 3112 3111 3110 3110 3109 3108 3106 3105 3104 3103 3102 3101 3100 3099 3098 3096 3095 3094 3093 3091
3110 3111 3112 3113 3114 3115 3116 3117 3118 3119 3120 3120 3121 3122 3123 3123 3124 3125 3125 3125 3126 3126 3126 3127 3127 3127 3128 3128 3128 3128 3128 3129 3129 3129 3129 3129 3129 3129 3129 3129 3129 3128 3128 3128 3128 3128 3128 3128 3128 3128 3128 3128 3127 3127 3127 3127 3127 3126 3126 3126 3125 3125 3125 3124 3124 3123 3123 3122 3121 3121 3120 3119 3119 3118 3118 3117 3116 3116 3115 3114 3113 3113 3112 3111 3110 3109 3108 3107 3106 3105 3104 3103 3102 3100 3100 3098 3097 3096 3095 3094 3092 3091 3090
3109 3110 3111 3112 3113 3114 3115 3116 3117 3118 3119 3120 3120 3121 3122 3123 3123 3124 3124 3125 3125 3125 3125 3126 3126 3126 3127 3127 3127 3127 3127 3128 3128 3128 3128 3128 3128 3128 3128 3128 3128 3128 3127 3127 3127 3127 3127 3127 3127 3127 3127 3127 3126 3126 3126 3126 3126 3125 3125 3125 3125 3124 3124 3123 3123 3122 3121 3121 3120 3120 3119 3118 3118 3117 3116 3116 3115 3115 3114 3113 3112 3111 3110 3110 3109 3108 3107 3106 3105 3104 3102 3101 3100 3099 3098 3097 3096 3095 3093 3092 3091 3090 3088
3108 3109 3110 3111 3112 3113 3114 3115 3116 3117 3118 3119 3120 3120 3121 3122 3122 3123 3123 3124 3124 3125 3125 3125 3125 3126 3126 3126 3126 3126 3127 3127 3127 3127 3127 3127 3127 3127 3127 3127 3127 3127 3127 3127 3126 3126 3126 3126 3126 3126 3126 3126 3125 3125 3125 3125 3125 3125 3124 3124 3124 3123 3123 3122 3121 3121 3120 3120 3119 3118 3118 3117 3116 3116 3115 3115 3114 3113 3112 3112 3111 3110 3109 3108 3107 3106 3105 3104 3103 3102 3101 3100 3099 3098 3097 3095 3094 3093 3092 3090 3089 3088 3086
3107 3108 3109 3110 3111 3112 3113 3114 3115 3116 3117 3118 3119 3120 3120 3121 3121 3122 3122 3123 3123 3124 3124 3124 3125 3125 3125 3125 3125 3126 3126 3126 3126 3126 3126 3126 3126 3126 3126 3126 3126 3126 3126 3126 3126 3126 3126 3125 3125 3125 3125 3125 3125 3124 3124 3124 3124 3124 3123 3123 3122 3122 3121 3121 3120 3120 3119 3119 3118 3117 3117 3116 3115 3115 3114 3113 3113 3112 3111 3110 3110 3109 3108 3107 3106 3105 3104 3103 3102 3101 3100 3099 3098 3096 3095 3094 3093 3091 3090 3089 3087 3086 3085
3106 3107 3108 3109 3110 3111 3112 3113 3114 3115 3116 3117 3118 3119 3119 3120 3120 3121 3121 3122 3122 3123 3123 3123 3124 3124 3124 3125 3125 3125 3125 3125 3125 3126 3126 3125 3125 3125 3125 3125 3125 3125 3125 3125 3125 3125 3125 3125 3125 3124 3124 3124 3124 3123 3123 3123 3123 3122 3122 3122 3121 3121 3120 3120 3119 3119 3118 3117 3117 3116 3115 3115 3114 3114 3113 3112 3111 3111 3110 3109 3108 3107 3106 3105 3105 3104 3103 3102 3100 3100 3098 3097 3096 3095 3094 3092 3091 3090 3089 3087 3086 3084 3083
3105 3106 3107 3108 3109 3110 3111 3112 3113 3114 3115 3116 3117 3118 3118 3119 3120 3120 3120 3121 3121 3122 3122 3123 3123 3123 3124 3124 3124 3124 3125 3125 3125 3125 3125 3125 3125 3125 3124 3124 3124 3124 3124 3124 3124 3124 3124 3124 3124 3124 3123 3123 3123 3122 3122 3122 3122 3121 3121 3121 3120 3120 3119 3119 3118 3118 3117 3116 3116 3115 3114 3114 3113 3112 3112 3111 3110 3110 3109 3108 3107 3106 3105 3104 3103 3102 3101 3100 3099 3098 3097 3096 3095 3093 3092 3091 3090 3088 3087 3085 3084 3083 3081
3104 3105 3106 3107 3108 3109 3110 3111 3112 3113 3114 3115 3116 3117 3117 3118 3119 3119 3120 3120 3120 3121 3121 3122 3122 3122 3123 3123 3123 3123 3124 3124 3124 3124 3124 3124 3124 3124 3123 3123 3123 3123 3123 3123 3123 3123 3123 3123 3123 3122 3122 3122 3122 3121 3121 3121 3121 3120 3120 3120 3119 3119 3118 3118 3117 3116 3116 3115 3115 3114 3113 3113 3112 3111 3111 3110 3109 3109 3108 3107 3106 3105 3104 3103 3102 3101 3100 3099 3097 3096 3095 3094 3093 3092 3090 3089 3088 3086 3085 3084 3082 3081 3080
3103 3104 3105 3106 3107 3109 3110 3110 3111 3112 3113 3114 3115 3115 3116 3117 3118 3118 3119 3119 3120 3120 3120 3121 3121 3121 3122 3122 3122 3122 3123 3123 3123 3123 3123 3123 3123 3123 3123 3123 3122 3122 3122 3122 3122 3122 3122 3122 3122 3121 3121 3121 3121 3120 3120 3120 3120 3120 3119 3119 3118 3118 3117 3117 3116 3115 3115 3114 3114 3113 3112 3111 3111 3110 3110 3109 3108 3107 3106 3105 3105 3104 3103 3102 3100 3100 3098 3097 3096 3095 3094 3092 3091 3090 3089 3087 3086 3085 3083 3082 3080 3079 3078
3102 3104 3105 3105 3106 3108 3109 3110 3110 3111 3112 3113 3114 3115 3115 3116 3117 3117 3118 3118 3119 3119 3120 3120 3120 3120 3121 3121 3121 3121 3122 3122 3122 3122 3122 3122 3122 3122 3122 3122 3122 3122 3121 3121 3121 3121 3121 3121 3121 3120 3120 3120 3120 3120 3119 3119 3119 3119 3118 3118 3117 3117 3116 3116 3115 3115 3114 3113 3112 3112 3111 3110 3110 3109 3108 3107 3106 3105 3105 3104 3103 3102 3101 3100 3099 3098 3097 3096 3095 3093 3092 3090 3089 3088 3087 3085 3084 3083 3081 3080 3079 3077 3075
3102 3103 3104 3105 3106 3107 3108 3109 3110 3110 3111 3112 3113 3114 3114 3115 3116 3116 3117 3117 3118 3118 3119 3119 3119 3120 3120 3120 3120 3120 3121 3121 3121 3121 3121 3121 3121 3121 3121 3121 3121 3121 3121 3121 3120 3120 3120 3120 3120 3120 3119 3119 3119 3119 3118 3118 3118 3118 3117 3117 3116 3116 3115 3115 3114 3113 3112 3112 3111 3110 3110 3109 3108 3108 3107 3106 3105 3104 3103 3102 3101 3101 3100 3099 3098 3097 3095 3094 3093 3092 3090 3089 3088 3086 3085 3084 3082 3081 3080 3078 3077 3075 3074
3101 3102 3103 3104 3105 3106 3107 3108 3108 3109 3110 3111 3112 3113 3114 3114 3115 3115 3116 3116 3117 3117 3118 3118 3118 3119 3119 3119 3120 3120 3120 3120 3120 3120 3120 3120 3120 3120 3120 3120 3120 3120 3120 3120 3120 3120 3119 3119 3119 3119 3118 3118 3118 3118 3117 3117 3117 3116 3116 3116 3115 3115 3114 3113 3113 3112 3111 3110 3110 3109 3108 3108 3107 3106 3105 3104 3103 3102 3101 3101 3100 3099 3098 3097 3096 3095 3094 3093 3091 3090 3089 3087 3086 3085 3083 3082 3081 3079 3078 3076 3075 3073 3072
3100 3101 3102 3103 3104 3105 3106 3107 3107 3108 3109 3110 3111 3112 3113 3113 3114 3114 3115 3115 3116 3116 3117 3117 3117 3118 3118 3118 3119 3119 3119 3120 3120 3120 3120 3120 3120 3120 3120 3120 3119 3119 3119 3119 3119 3118 3118 3118 3118 3118 3117 3117 3117 3117 3116 3116 3116 3115 3115 3115 3114 3114 3113 3112 3111 3110 3110 3109 3108 3108 3107 3106 3105 3105 3104 3103 3102 3101 3100 3099 3099 3098 3097 3096 3095 3093 3092 3091 3090 3088 3087 3085 3084 3083 3081 3080 3079 3077 3076 3074 3073 3071 3070
3100 3101 3101 3102 3103 3104 3105 3106 3106 3107 3108 3109 3110 3111 3111 3112 3113 3113 3114 3114 3115 3115 3115 3116 3116 3117 3117 3117 3118 3118 3118 3119 3119 3119 3119 3119 3119 3119 3119 3119 3119 3119 3118 3118 3118 3117 3117 3117 3117 3117 3116 3116 3116 3116 3115 3115 3115 3115 3114 3114 3113 3112 3112 3111 3110 3109 3109 3108 3107 3106 3105 3105 3104 3103 3102 3101 3100 3099 3099 3098 3097 3096 3095 3094 3093 3091 3090 3089 3088 3086 3085 3084 3082 3081 3080 3078 3076 3075 3073 3072 3070 3069 3067
3099 3100 3101 3101 3102 3103 3104 3105 3105 3106 3107 3108 3109 3110 3110 3111 3112 3112 3113 3113 3114 3114 3115 3115 3115 3116 3116 3116 3117 3117 3117 3118 3118 3118 3118 3118 3118 3118 3118 3118 3118 3118 3117 3117 3117 3116 3116 3116 3116 3115 3115 3115 3115 3115 3115 3114 3114 3114 3113 3113 3112 3111 3110 3110 3109 3108 3107 3107 3106 3105 3104 3103 3102 3101 3100 3100 3099 3098 3097 3096 3095 3094 3093 3092 3091 3090 3088 3087 3085 3084 3083 3082 3080 3079 3077 3076 3074 3073 3071 3070 3068 3066 3064
3099 3099 3100 3101 3101 3102 3103 3104 3105 3106 3106 3107 3108 3109 3110 3110 3111 3111 3112 3113 3113 3114 3114 3114 3115 3115 3115 3115 3116 3116 3116 3117 3117 3117 3117 3117 3117 3117 3117 3117 3117 3117 3117 3116 3116 3115 3115 3115 3115 3114 3114 3114 3114 3114 3113 3113 3113 3112 3112 3111 3111 3110 3109 3108 3108 3107 3106 3105 3105 3104 3103 3102 3101 3100 3099 3098 3098 3097 3096 3095 3094 3093 3091 3090 3089 3088 3086 3085 3084 3082 3081 3080 3078 3077 3075 3074 3072 3070 3069 3067 3065 3064 3062
3098 3099 3100 3100 3101 3101 3102 3103 3104 3105 3106 3106 3107 3108 3109 3110 3110 3111 3111 3112 3112 3113 3113 3114 3114 3114 3114 3115 3115 3115 3116 3116 3116 3116 3116 3116 3116 3116 3116 3116 3116 3116 3116 3115 3115 3115 3115 3115 3114 3114 3113 3113 3112 3112 3112 3112 3111 3111 3110 3110 3110 3109 3108 3107 3106 3105 3105 3104 3103 3102 3101 3100 3100 3099 3098 3097 3096 3095 3095 3094 3092 3091 3090 3089 3087 3086 3085 3083 3082 3080 3079 3077 3076 3075 3073 3071 3070 3068 3067 3065 3063 3061 3059
3097 3098 3099 3100 3100 3101 3102 3103 3103 3104 3105 3106 3106 3107 3108 3109 3110 3110 3110 3111 3112 3112 3112 3113 3113 3113 3113 3114 3114 3115 3115 3115 3115 3115 3115 3115 3115 3115 3115 3115 3115 3115 3115 3115 3115 3114 3114 3114 3113 3113 3112 3112 3111 3111 3111 3110 3110 3110 3109 3109 3108 3107 3106 3106 3105 3104 3104 3103 3102 3101 3100 3100 3099 3098 3097 3096 3095 3094 3093 3092 3091 3090 3089 3087 3086 3085 3083 3082 3080 3079 3077 3075 3074 3072 3071 3069 3068 3066 3064 3063 3061 3059 3057
3097 3098 3098 3099 3100 3100 3101 3102 3103 3104 3105 3105 3106 3107 3107 3108 3109 3110 3110 3110 3111 3111 3112 3112 3112 3112 3113 3113 3113 3114 3114 3114 3114 3114 3114 3114 3114 3114 3114 3114 3114 3114 3114 3114 3114 3113 3113 3113 3112 3112 3112 3112 3111 3110 3110 3109 3109 3108 3108 3107 3107 3106 3105 3104 3104 3103 3102 3101 3101 3100 3099 3099 3098 3097 3096 3095 3094 3093 3092 3091 3090 3089 3087 3086 3085 3083 3081 3080 3078 3077 3075 3074 3072 3070 3069 3067 3065 3064 3062 3060 3059 3056 3055
3096 3097 3098 3099 3099 3100 3101 3102 3102 3103 3104 3105 3105 3106 3107 3108 3108 3109 3109 3110 3110 3110 3111 3111 3111 3112 3112 3112 3112 3113 3113 3113 3113 3113 3113 3113 3113 3113 3113 3113 3113 3113 3113 3113 3112 3112 3112 3112 3112 3112 3112 3111 3111 3110 3109 3108 3107 3107 3106 3106 3105 3105 3104 3103 3102 3101 3101 3100 3100 3099 3098 3098 3097 3096 3095 3094 3093 3092 3090 3090 3088 3087 3086 3084 3083 3081 3080 3078 3077 3075 3073 3072 3070 3069 3067 3065 3064 3062 3060 3058 3056 3054 3052
3096 3097 3097 3098 3099 3100 3101 3101 3102 3103 3103 3104 3105 3106 3106 3107 3108 3108 3109 3109 3110 3110 3110 3110 3111 3111 3111 3111 3111 3111 3112 3112 3112 3112 3112 3112 3112 3112 3112 3112 3112 3112 3112 3111 3111 3111 3111 3111 3111 3111 3111 3110 3110 3110 3110 3108 3106 3105 3105 3104 3104 3103 3102 3101 3101 3100 3100 3099 3099 3098 3097 3097 3096 3095 3094 3093 3091 3090 3089 3088 3087 3085 3084 3083 3081 3080 3079 3077 3075 3073 3072 3070 3068 3067 3065 3063 3062 3060 3058 3056 3054 3052 3050